This is the latest recevied weather packets stored in our database for station/object KM4KMS. If no packets are shown the sender has not sent any weather packets the latest 10 day(s).
| Time | Temp. | Humidity | Pressure | Rain* | Wind** | Luminosity | Snow |
|---|---|---|---|---|---|---|---|
| 1777549577 | 6.67° C | 85% | 1015.2 hPa | 0 mm | - | 38 W/m² | - |
| 1777549273 | 6.67° C | 85% | 1015.1 hPa | 0 mm | - | 35 W/m² | - |
| 1777548970 | 6.67° C | 85% | 1015 hPa | 0 mm | - | 30 W/m² | - |
| 1777548667 | 6.67° C | 85% | 1015.3 hPa | 0 mm | - | 28 W/m² | - |
| 1777548364 | 6.67° C | 86% | 1015.3 hPa | 0 mm | - | 25 W/m² | - |
| 1777548061 | 6.67° C | 86% | 1014.8 hPa | 0 mm | - | 22 W/m² | - |
| 1777547756 | 6.11° C | 86% | 1015 hPa | 0 mm | - | 18 W/m² | - |
| 1777547453 | 6.11° C | 87% | 1014.8 hPa | 0 mm | - | 15 W/m² | - |
| 1777547150 | 6.11° C | 87% | 1014.8 hPa | 0 mm | - | 12 W/m² | - |
| 1777546848 | 6.11° C | 87% | 1014.9 hPa | 0 mm | - | 8 W/m² | - |
| 1777546544 | 6.11° C | 87% | 1014.4 hPa | 0 mm | - | 6 W/m² | - |
| 1777546241 | 6.11° C | 87% | 1014.4 hPa | 0 mm | - | 3 W/m² | - |
| 1777545938 | 6.11° C | 89% | 1014.2 hPa | 0 mm | - | 2 W/m² | - |
| 1777545634 | 6.11° C | 89% | 1013.9 hPa | 0 mm | - | 0 W/m² | - |
| 1777545331 | 6.11° C | 91% | 1014.3 hPa | 0 mm | - | 0 W/m² | - |
| 1777545029 | 6.11° C | 92% | 1014.1 hPa | 0 mm | - | 0 W/m² | - |
| 1777544725 | 6.11° C | 92% | 1014.2 hPa | 0 mm | - | 0 W/m² | - |
| 1777544421 | 6.11° C | 91% | 1014.2 hPa | 0 mm | - | 0 W/m² | - |
| 1777544117 | 6.67° C | 90% | 1014 hPa | 0 mm | - | 0 W/m² | - |
| 1777543815 | 6.67° C | 89% | 1014 hPa | 0 mm | - | 0 W/m² | - |
| 1777543511 | 6.67° C | 87% | 1013.9 hPa | 0 mm | - | 0 W/m² | - |
| 1777543207 | 7.22° C | 85% | 1014 hPa | 0 mm | - | 0 W/m² | - |
| 1777542903 | 7.22° C | 86% | 1014.1 hPa | 0 mm | - | 0 W/m² | - |
| 1777542600 | 7.22° C | 87% | 1013.7 hPa | 0 mm | - | 0 W/m² | - |
| 1777542295 | 7.22° C | 88% | 1013.9 hPa | 0 mm | - | 0 W/m² | - |
* Rain latest hour (hover to see other rain measurements)
** Current wind speed in m/s (hover to see current wind gust speed)